[[{"header":{"parameterUnit":"m.s-1","parameterCategory":2,"la1":30.2991,"la2":30.254,"lo1":-89.0895,"lo2":-89.0444,"dy":0.0017,"dx":0.0017,"nx":28,"ny":28,"refTime":"2024-03-15T09:00:00:Z","depth":"0","parameterNumber":2,"parameterNumberName":"U-component_of_CURRENTS"},"data":[0,0,0,0,0,0,0,0,0,0,0,0,0,0,0,0,0,0,0,0,0,0,0,0,0,0,0,0,0,0,0,0,0,0,0,0,0,0,0,0,0,0,0,0,0,0,0,0,0,0,0,0,0,0,0,0,0,0,0.3524,0.3525,0,0.3535,0.3535,0.3535,0.3504,0.3504,0.3503,0.3503,0.351,0.351,0.3511,0,0,0,0,0,0,0,0,0,0,0,0,0,0.3449,0.345,0.3524,0.3525,0.3526,0.3535,0.3535,0.3535,0.3504,0.3504,0.3503,0.3503,0.351,0.351,0.3511,0,0,0,0,0,0,0,0,0,0,0,0,0,0.3468,0.3451,0.3524,0.3516,0.3515,0.3535,0.3535,0.3534,0.3504,0.3504,0.3503,0.3502,0.3509,0.351,0.3511,0.3529,0,0,0.3514,0.3514,0,0,0,0,0,0,0,0,0.3467,0.347,0.3516,0.3516,0.3516,0.3523,0.3511,0.3534,0.3504,0.3503,0.3503,0.3502,0.3518,0.3518,0.3513,0.353,0.353,0.3514,0.3514,0.3515,0.3515,0,0,0,0,0,0,0,0.3466,0.3469,0.3523,0.3517,0.3517,0.3502,0.3504,0.3515,0.3509,0.3503,0.3502,0.3512,0.3517,0.3513,0.3514,0.353,0.3514,0.3515,0.3515,0.3515,0.3588,0.359,0,0,0,0,0,0,0.3478,0.3468,0.3523,0.3524,0.3496,0.3505,0.3506,0.3517,0.3509,0.3509,0.3513,0.3511,0.3512,0.3513,0.3514,0.357,0.3515,0.3515,0.3516,0.3587,0.3589,0.359,0,0,0,0,0,0,0.3476,0.3483,0.3522,0.35,0.3505,0.3507,0.3519,0.3517,0.3514,0.3518,0.3516,0.3512,0.3511,0.3513,0.3537,0.3569,0.3516,0.3517,0.3585,0.3588,0.359,0.3661,0,0,0,0,0,0,0.3474,0.3482,0.3491,0.3502,0.3507,0.3542,0.352,0.3518,0.3524,0.3521,0.3517,0.3517,0.3511,0.3536,0.3538,0.3569,0.3517,0.3584,0.3586,0.3589,0.3657,0.3665,0.3672,0,0,0,0,0,0.3471,0.3488,0.3491,0.3498,0.352,0.3543,0.3544,0.3539,0.3525,0.3531,0.3533,0.3517,0.3554,0.3538,0.354,0.3572,0.3582,0.3586,0.3589,0.3653,0.3664,0.3672,0,0,0,0,0,0,0.3454,0.3487,0.3491,0.3515,0.3533,0.354,0.3552,0.3543,0.3547,0.3547,0.3536,0.3537,0.3574,0.3562,0.3544,0.3601,0.3565,0.3569,0.3614,0.3623,0.3631,0.3638,0.3518,0,0,0,0,0,0.3459,0.3481,0.3507,0.3526,0.3541,0.3545,0.3553,0.3552,0.3561,0.356,0.3562,0.3568,0.3589,0.3596,0.361,0.3638,0.3661,0.366,0.3668,0.3674,0.3681,0.3734,0.3748,0.3601,0.3601,0.3601,0,0,0.3456,0.348,0.349,0.3524,0.3538,0.3561,0.3547,0.3569,0.3584,0.3564,0.3587,0.3599,0.3604,0.3642,0.3656,0.3634,0.3738,0.3678,0.3684,0.3687,0.3739,0.3753,0.3766,0.3603,0.3603,0.3602,0,0,0.3467,0.3489,0.3512,0.3531,0.3565,0.3576,0.3585,0.3603,0.3611,0.3639,0.3636,0.3667,0.3683,0.3702,0.3711,0.3769,0.3781,0.3772,0.3815,0.3866,0.3879,0.389,0.398,0.3998,0.3771,0.3772,0.3772,0,0.346,0.3496,0.3521,0.3548,0.3563,0.3585,0.3605,0.3626,0.3647,0.3662,0.3656,0.3707,0.3715,0.3767,0.3793,0.3789,0.3831,0.3779,0.3878,0.3889,0.3899,0.3988,0.4007,0.3775,0.3775,0.3775,0.3774,0,0.3489,0.3516,0.3535,0.3577,0.3594,0.3621,0.3655,0.3685,0.3699,0.3712,0.3768,0.379,0.3814,0.3833,0.3834,0.3912,0.3927,0.3887,0.3855,0.3919,0.4008,0.4027,0.3781,0.378,0.3778,0.3777,0,0,0.347,0.3542,0.3542,0.3569,0.361,0.3631,0.3677,0.3722,0.3772,0.3791,0.3858,0.3887,0.3895,0.3907,0.392,0.3975,0.4104,0.3969,0.397,0.4062,0.426,0.425,0.427,0.4082,0.4085,0.4087,0.4308,0,0.3483,0.3535,0.3561,0.3605,0.3638,0.3671,0.3718,0.3759,0.3809,0.3891,0.3917,0.3989,0.3923,0.3975,0.4004,0.4099,0.4151,0.405,0.418,0.4185,0.4171,0.429,0.4135,0.4316,0.4327,0.433,0.4332,0,0.3495,0.3533,0.3573,0.3642,0.3659,0.3687,0.3774,0.3823,0.3928,0.3972,0.4018,0.4061,0.4154,0.4101,0.4229,0.4171,0.4212,0.4268,0.4276,0.425,0.421,0.4245,0.435,0.4248,0.4361,0.4359,0.4357,0,0.3474,0.3537,0.3571,0.3589,0.367,0.37,0.375,0.3839,0.3903,0.4047,0.4119,0.4194,0.4279,0.4325,0.4398,0.4338,0.4569,0.449,0.4513,0.4515,0.4399,0.4385,0.4416,0.4569,0.4568,0.4568,0.4567,0,0.3476,0.3505,0.357,0.3592,0.3652,0.3703,0.3786,0.3862,0.3987,0.4084,0.4154,0.4264,0.4339,0.4458,0.4484,0.4582,0.4618,0.4563,0.4576,0.4424,0.441,0.4325,0.4273,0.4576,0.4574,0.4573,0.4571,0,0.3449,0.3492,0.3545,0.3623,0.3647,0.3692,0.3794,0.3872,0.3987,0.4136,0.4193,0.4362,0.4529,0.4603,0.4758,0.4708,0.469,0.4813,0.4656,0.4645,0.4531,0.4489,0.4383,0.4251,0.489,0.4891,0.4892,0,0.3441,0.3466,0.3547,0.358,0.3615,0.3683,0.3743,0.3861,0.3945,0.4186,0.4269,0.449,0.4605,0.4834,0.4861,0.4944,0.4754,0.4822,0.4649,0.4547,0.451,0.4299,0.4179,0.4552,0.455,0.4549,0.4548,0,0.3428,0.3457,0.3496,0.3561,0.3619,0.3675,0.3768,0.3825,0.3992,0.4105,0.4294,0.4425,0.4677,0.4716,0.4845,0.4857,0.4601,0.4792,0.4709,0.4285,0.4032,0.3904,0.442,0.4534,0.4535,0.4536,0.4537,0.4537,0.3408,0.3424,0.3476,0.352,0.3592,0.364,0.364,0.3752,0.3848,0.3987,0.4215,0.4335,0.4529,0.4693,0.4682,0.4588,0.4532,0.4448,0.4429,0.4243,0.402,0.4538,0.4634,0.4636,0.4637,0.4639,0.464,0,0.3363,0.338,0.3431,0.3473,0.35,0.3559,0.363,0.3602,0.3644,0.3855,0.3977,0.4149,0.4223,0.4324,0.4362,0.4245,0.3991,0.4141,0.3792,0.3707,0.4211,0.4099,0.4051,0.4051,0.4051,0.4051,0.4051,0.4052,0.3339,0.3346,0.3354,0.3351,0.3374,0.3342,0.3335,0.3329,0.342,0.3488,0.3571,0.3738,0.3984,0.4149,0.4068,0.3969,0.3662,0.3524,0.3499,0.3862,0.3886,0.3909,0.3789,0.3678,0.3677,0.2804,0.2798,0.2793]},{"header":{"parameterUnit":"m.s-1","parameterCategory":2,"la1":30.2991,"la2":30.254,"lo1":-89.0895,"lo2":-89.0444,"dy":0.0017,"dx":0.0017,"nx":28,"ny":28,"refTime":"2024-03-15T09:00:00:Z","depth":"0","parameterNumber":3,"parameterNumberName":"V-component_of_CURRENTS"},"data":[0,0,0,0,0,0,0,0,0,0,0,0,0,0,0,0,0,0,0,0,0,0,0,0,0,0,0,0,0,0,0,0,0,0,0,0,0,0,0,0,0,0,0,0,0,0,0,0,0,0,0,0,0,0,0,0,0,0,0.0074,0.0074,0,0.0006,0.0005,0.0004,-0.0052,-0.0052,-0.0053,-0.0053,-0.016,-0.0163,-0.0165,0,0,0,0,0,0,0,0,0,0,0,0,0,0.011,0.011,0.0074,0.0074,0.0073,0.0006,0.0005,0.0004,-0.0052,-0.0052,-0.0053,-0.0053,-0.0159,-0.0162,-0.0165,0,0,0,0,0,0,0,0,0,0,0,0,0,0.0072,0.011,0.0074,0.0039,0.0035,0.0006,0.0005,0.0003,-0.0052,-0.0052,-0.0053,-0.0053,-0.0158,-0.0162,-0.0166,-0.0177,0,0,-0.0177,-0.0179,0,0,0,0,0,0,0,0,0.0074,0.007,0.0045,0.0041,0.0037,-0.0013,-0.0022,-0.0058,-0.0052,-0.0021,-0.0053,-0.0054,-0.0113,-0.012,-0.0134,-0.0182,-0.0186,-0.0177,-0.018,-0.0181,-0.0182,0,0,0,0,0,0,0,0.0077,0.0073,0.0045,0.0044,0.0039,0.001,0.0004,-0.0029,-0.0065,-0.0024,-0.0027,-0.0032,-0.0116,-0.0131,-0.0137,-0.0188,-0.0177,-0.0181,-0.0183,-0.0184,-0.0254,-0.0254,0,0,0,0,0,0,0.0092,0.0076,0.0047,0.0043,0.0057,0.001,0.0003,0.0002,-0.0064,-0.0074,-0.0031,-0.0034,-0.0124,-0.0133,-0.0141,-0.0141,-0.0181,-0.0185,-0.0187,-0.0255,-0.0254,-0.0254,0,0,0,0,0,0,0.0093,0.0091,0.005,0.0059,0.0052,0.0011,0.0009,0.0001,-0.0012,-0.0069,-0.008,-0.0035,-0.0125,-0.0136,-0.0163,-0.0146,-0.0186,-0.019,-0.0255,-0.0254,-0.0254,-0.0152,0,0,0,0,0,0,0.0095,0.0091,0.0094,0.006,0.0052,0.0044,0.0009,-0.0,-0.0013,-0.0018,-0.0076,-0.0087,-0.0126,-0.0157,-0.0167,-0.0152,-0.0193,-0.0256,-0.0255,-0.0254,-0.0156,-0.0148,-0.0141,0,0,0,0,0,0.0096,0.0111,0.0095,0.0092,0.0058,0.0045,0.0038,0.0005,-0.0013,-0.0011,-0.005,-0.0085,-0.016,-0.0159,-0.0171,-0.0157,-0.0256,-0.0255,-0.0254,-0.0159,-0.0149,-0.0141,0,0,0,0,0,0,0.0133,0.0106,0.0088,0.0094,0.0074,0.0036,0.0036,0.0012,-0.0018,-0.0022,-0.0079,-0.0091,-0.0112,-0.0149,-0.0147,-0.0177,-0.0214,-0.0216,-0.0138,-0.0129,-0.0122,-0.0091,-0.0196,0,0,0,0,0,0.0142,0.0142,0.0112,0.0117,0.0111,0.0074,0.0064,0.0044,0.0014,-0.0,-0.0041,-0.0084,-0.0118,-0.0133,-0.0173,-0.0184,-0.0205,-0.0185,-0.0177,-0.0171,-0.0154,-0.017,-0.0162,-0.0251,-0.0251,-0.0251,0,0,0.0156,0.0142,0.0141,0.0124,0.0105,0.0112,0.0066,0.0061,0.0067,-0.0007,-0.0013,-0.0061,-0.0117,-0.0132,-0.0144,-0.0158,-0.0156,-0.0169,-0.0163,-0.015,-0.0168,-0.0159,-0.0151,-0.025,-0.025,-0.0251,0,0,0.0195,0.0175,0.0191,0.0181,0.0163,0.0143,0.0147,0.0115,0.01,0.0085,0.0034,0.0002,-0.0051,-0.0082,-0.0106,-0.0082,-0.0121,-0.0099,-0.003,-0.0046,-0.0038,-0.0031,-0.0039,-0.0034,-0.009,-0.009,-0.009,0,0.0212,0.023,0.0194,0.0211,0.0216,0.0165,0.0192,0.017,0.0134,0.0133,0.0096,0.0032,-0.0025,-0.003,-0.0029,-0.0063,-0.0074,-0.0055,-0.0033,-0.0027,-0.0022,-0.0032,-0.0028,-0.0085,-0.0085,-0.0086,-0.0086,0,0.0262,0.0279,0.0291,0.0295,0.0295,0.0309,0.0282,0.0276,0.0247,0.0224,0.0207,0.0133,0.0097,0.007,0.0024,0.0035,0.0016,-0.0023,-0.0047,-0.0006,-0.0021,-0.0018,-0.0078,-0.0079,-0.0081,-0.0082,0,0,0.0299,0.0322,0.0328,0.0354,0.0344,0.0355,0.0366,0.0369,0.0395,0.0336,0.0371,0.0281,0.0239,0.0209,0.0148,0.0131,0.0142,0.0078,0.0075,0.0085,0.0123,0.012,0.0122,0.0113,0.0114,0.0115,0.0102,0,0.0352,0.0416,0.0406,0.0468,0.0503,0.0471,0.0496,0.049,0.0469,0.0488,0.0413,0.0413,0.0294,0.0293,0.0248,0.0181,0.0153,0.015,0.0068,0.0066,0.0071,0.0126,0.0109,0.0097,0.0104,0.0105,0.0105,0,0.0409,0.0448,0.0527,0.0577,0.059,0.062,0.0661,0.0674,0.0673,0.0662,0.0632,0.0577,0.0539,0.0439,0.033,0.0338,0.0234,0.017,0.0167,0.0134,0.0069,0.0053,0.0101,-0.0129,0.0109,0.0108,0.0108,0,0.0478,0.0533,0.0608,0.0624,0.0669,0.0705,0.0726,0.0737,0.0785,0.079,0.0839,0.0746,0.0754,0.0604,0.0441,0.0393,0.0343,0.0253,0.015,0.0148,0.0102,0.0095,-0.0069,0.0174,0.0174,0.0174,0.0174,0,0.055,0.061,0.0653,0.07,0.0802,0.0793,0.0898,0.0903,0.0954,0.1058,0.0943,0.1024,0.0801,0.0735,0.053,0.0375,0.04,0.0185,0.0154,0.0136,0.0134,-0.0096,-0.0216,0.0173,0.0173,0.0173,0.0173,0,0.0634,0.0655,0.0753,0.0818,0.0849,0.0928,0.1033,0.1113,0.1133,0.1276,0.13,0.1266,0.1181,0.0947,0.0748,0.0533,0.023,0.0284,0.0287,0.0256,-0.0084,-0.0197,-0.0357,-0.0463,0.016,0.016,0.016,0,0.0692,0.0749,0.0856,0.0938,0.0982,0.1088,0.1179,0.1214,0.1317,0.1446,0.1547,0.1516,0.1539,0.124,0.085,0.0512,0.0268,0.0262,0.0145,-0.008,-0.023,-0.0315,-0.04,0.012,0.0119,0.0119,0.0119,0,0.0808,0.0843,0.0928,0.108,0.1196,0.1327,0.1457,0.1563,0.1643,0.1769,0.1945,0.1984,0.171,0.1395,0.092,0.0646,0.0099,0.0246,0.0007,-0.0266,-0.0362,-0.0486,0.0105,0.0116,0.0117,0.0117,0.0117,0.0117,0.0904,0.0985,0.109,0.1232,0.1371,0.1547,0.1669,0.1823,0.201,0.2215,0.2241,0.2338,0.1853,0.1212,0.0832,0.0083,0.0085,-0.017,-0.0282,-0.0343,-0.0465,0.0136,0.0114,0.0114,0.0115,0.0115,0.0115,0,0.1017,0.1093,0.1234,0.1406,0.1566,0.1616,0.1842,0.1975,0.2209,0.2423,0.2569,0.2379,0.1775,0.1115,0.0137,-0.0358,-0.0566,-0.0641,-0.0802,-0.0863,-0.0339,-0.0363,-0.0479,-0.0479,-0.0478,-0.0478,-0.0478,-0.0478,0.1085,0.1219,0.1272,0.1526,0.1657,0.1874,0.2005,0.2221,0.2399,0.2643,0.2705,0.2713,0.2177,0.0539,-0.0619,-0.0896,-0.1231,-0.1293,-0.1451,-0.1148,-0.1114,-0.1082,-0.1135,-0.1412,-0.1413,-0.1945,-0.195,-0.1955]}],[{"header":{"parameterUnit":"m.s-1","parameterCategory":2,"la1":30.2991,"la2":30.254,"lo1":-89.0895,"lo2":-89.0444,"dy":0.0017,"dx":0.0017,"nx":28,"ny":28,"refTime":"2024-03-15T09:00:00:Z","depth":"2","parameterNumber":2,"parameterNumberName":"U-component_of_CURRENTS"},"data":[0,0,0,0,0,0,0,0,0,0,0,0,0,0,0,0,0,0,0,0,0,0,0,0,0,0,0,0,0,0,0,0,0,0,0,0,0,0,0,0,0,0,0,0,0,0,0,0,0,0,0,0,0,0,0,0,0,0,0.2595,0.2596,0,0.2651,0.2651,0.2651,0.2658,0.2657,0.2657,0.2657,0.2687,0.2688,0.2689,0,0,0,0,0,0,0,0,0,0,0,0,0,0.253,0.253,0.2595,0.2596,0.2597,0.2651,0.2651,0.2651,0.2658,0.2657,0.2657,0.2657,0.2687,0.2688,0.2689,0,0,0,0,0,0,0,0,0,0,0,0,0,0.2564,0.253,0.2595,0.2611,0.2614,0.2651,0.2651,0.2651,0.2658,0.2657,0.2657,0.2657,0.2686,0.2688,0.2689,0.2698,0,0,0.2693,0.2693,0,0,0,0,0,0,0,0,0.2562,0.2565,0.2608,0.261,0.2613,0.2652,0.2639,0.2668,0.2658,0.2635,0.2657,0.2657,0.2677,0.2679,0.2682,0.2699,0.27,0.2693,0.2693,0.2694,0.2694,0,0,0,0,0,0,0,0.2559,0.2563,0.2611,0.2609,0.2612,0.2629,0.2632,0.2644,0.265,0.2637,0.2639,0.2654,0.2677,0.268,0.2682,0.2701,0.2693,0.2694,0.2694,0.2695,0.2776,0.2778,0,0,0,0,0,0,0.2562,0.2561,0.261,0.2614,0.2593,0.263,0.2634,0.2635,0.2651,0.2655,0.2654,0.2654,0.2678,0.2681,0.2683,0.2743,0.2694,0.2695,0.2696,0.2775,0.2777,0.2778,0,0,0,0,0,0,0.256,0.2565,0.2608,0.2594,0.2601,0.2631,0.2633,0.2636,0.2657,0.2666,0.2668,0.2674,0.2678,0.2682,0.2709,0.2742,0.2696,0.2697,0.2773,0.2775,0.2777,0.283,0,0,0,0,0,0,0.2558,0.2564,0.2568,0.2594,0.2602,0.2644,0.2633,0.2638,0.2668,0.2669,0.2683,0.2684,0.2679,0.2707,0.271,0.2743,0.2698,0.2771,0.2774,0.2777,0.2827,0.2834,0.284,0,0,0,0,0,0.2555,0.2568,0.2567,0.2574,0.2606,0.2646,0.2651,0.2669,0.2669,0.2685,0.2692,0.2685,0.2726,0.2709,0.2712,0.2746,0.277,0.2773,0.2776,0.2824,0.2833,0.284,0,0,0,0,0,0,0.2542,0.2572,0.2571,0.2591,0.2621,0.2649,0.2672,0.2681,0.2699,0.2701,0.27,0.2702,0.2743,0.2736,0.2717,0.2778,0.2749,0.2753,0.2784,0.2792,0.2799,0.2812,0.2699,0,0,0,0,0,0.2541,0.2561,0.2588,0.2608,0.2623,0.2648,0.2668,0.268,0.2702,0.271,0.272,0.2733,0.2757,0.2767,0.2783,0.2811,0.283,0.2836,0.2843,0.2849,0.2862,0.2913,0.2926,0.2789,0.2789,0.2788,0,0,0.2542,0.2564,0.2574,0.2608,0.263,0.2658,0.2659,0.2698,0.2722,0.2711,0.2745,0.2761,0.2772,0.2807,0.2824,0.2805,0.2901,0.2853,0.2857,0.2868,0.2918,0.2932,0.2944,0.2791,0.279,0.279,0,0,0.2559,0.2574,0.2592,0.2623,0.2666,0.2681,0.2697,0.273,0.2746,0.2781,0.2785,0.2821,0.2845,0.2865,0.2876,0.293,0.294,0.2937,0.2977,0.3026,0.3038,0.3048,0.3104,0.3119,0.2934,0.2934,0.2934,0,0.2563,0.258,0.2607,0.2638,0.2665,0.2693,0.2718,0.2745,0.2783,0.2804,0.28,0.2866,0.2876,0.2929,0.2952,0.2948,0.2978,0.2943,0.3035,0.3046,0.3056,0.3111,0.3127,0.2937,0.2936,0.2936,0.2936,0,0.2582,0.2608,0.263,0.2668,0.2701,0.2735,0.2772,0.2801,0.2823,0.2853,0.2915,0.2935,0.2975,0.2988,0.2989,0.3067,0.3069,0.3043,0.3015,0.3073,0.3127,0.3143,0.2941,0.294,0.2939,0.2938,0,0,0.2567,0.2626,0.2638,0.2662,0.2718,0.275,0.2792,0.284,0.289,0.2924,0.2987,0.3032,0.3056,0.3072,0.3083,0.3128,0.3231,0.3121,0.3122,0.3177,0.3356,0.331,0.3322,0.3222,0.3225,0.3227,0.337,0,0.2574,0.2625,0.2653,0.2709,0.2737,0.2779,0.2826,0.288,0.293,0.3002,0.3038,0.3115,0.3084,0.313,0.3163,0.323,0.3273,0.3195,0.3291,0.3295,0.3246,0.3339,0.3079,0.318,0.3385,0.3388,0.339,0,0.2579,0.2615,0.2657,0.2735,0.2753,0.2792,0.2876,0.2929,0.3029,0.3072,0.3135,0.3186,0.3275,0.3238,0.3355,0.331,0.334,0.3372,0.3378,0.3326,0.3277,0.3152,0.3201,0.3416,0.3414,0.3412,0.341,0,0.2552,0.2626,0.2655,0.2682,0.2766,0.2797,0.2853,0.295,0.301,0.3141,0.3215,0.3296,0.3371,0.3419,0.3478,0.3439,0.3603,0.355,0.3529,0.3526,0.332,0.3294,0.3624,0.3624,0.3624,0.3623,0.3623,0,0.2546,0.2581,0.265,0.2671,0.2734,0.2804,0.289,0.2958,0.3072,0.3161,0.3263,0.335,0.3425,0.3516,0.3536,0.3596,0.3646,0.3569,0.3569,0.3332,0.3307,0.351,0.3495,0.3629,0.3627,0.3626,0.3625,0,0.2511,0.2555,0.2603,0.2687,0.272,0.2775,0.2898,0.2959,0.3094,0.3214,0.3269,0.3425,0.3558,0.362,0.3725,0.3681,0.3739,0.3733,0.3458,0.3423,0.3616,0.3602,0.3747,0.3747,0.3747,0.3746,0.3746,0,0.2491,0.2511,0.2599,0.2628,0.2665,0.2756,0.2809,0.2944,0.3013,0.3247,0.3297,0.3488,0.357,0.3725,0.3717,0.3761,0.3779,0.3522,0.3389,0.3648,0.3634,0.362,0.3606,0.3145,0.314,0.3136,0.3133,0,0.246,0.2494,0.2534,0.2572,0.2627,0.2693,0.2789,0.2834,0.3,0.3115,0.3262,0.3364,0.3549,0.3486,0.3562,0.3537,0.3496,0.3441,0.3799,0.3151,0.3091,0.3073,0.3078,0.3096,0.3099,0.3102,0.3104,0.3106,0.2435,0.2446,0.2478,0.2515,0.2571,0.259,0.2599,0.2697,0.2778,0.2899,0.3085,0.3163,0.325,0.3247,0.3176,0.314,0.3368,0.3203,0.3211,0.3225,0.3127,0.3069,0.3052,0.3056,0.3059,0.3061,0.3063,0,0.2363,0.2377,0.2409,0.2432,0.2421,0.2485,0.2544,0.2513,0.2538,0.2701,0.2795,0.2651,0.2674,0.2769,0.2676,0.2698,0.2618,0.2577,0.2441,0.2484,0.252,0.2379,0.211,0.2106,0.2102,0.2099,0,0,0.2331,0.2304,0.231,0.226,0.2269,0.2204,0.2196,0.2175,0.2245,0.2248,0.2298,0.2541,0.2703,0.2353,0.2336,0.2204,0.2303,0.2119,0.29,0.2784,0.2814,0.2922,0.276,0,0,0,0,0]},{"header":{"parameterUnit":"m.s-1","parameterCategory":2,"la1":30.2991,"la2":30.254,"lo1":-89.0895,"lo2":-89.0444,"dy":0.0017,"dx":0.0017,"nx":28,"ny":28,"refTime":"2024-03-15T09:00:00:Z","depth":"2","parameterNumber":3,"parameterNumberName":"V-component_of_CURRENTS"},"data":[0,0,0,0,0,0,0,0,0,0,0,0,0,0,0,0,0,0,0,0,0,0,0,0,0,0,0,0,0,0,0,0,0,0,0,0,0,0,0,0,0,0,0,0,0,0,0,0,0,0,0,0,0,0,0,0,0,0,0.0023,0.0023,0,-0.0031,-0.0031,-0.0032,-0.0073,-0.0074,-0.0074,-0.0074,-0.0158,-0.016,-0.0162,0,0,0,0,0,0,0,0,0,0,0,0,0,0.0048,0.0048,0.0023,0.0023,0.0022,-0.0031,-0.0031,-0.0032,-0.0073,-0.0074,-0.0074,-0.0074,-0.0157,-0.016,-0.0162,0,0,0,0,0,0,0,0,0,0,0,0,0,0.0019,0.0048,0.0024,-0.0004,-0.0007,-0.003,-0.0031,-0.0032,-0.0073,-0.0074,-0.0074,-0.0074,-0.0157,-0.016,-0.0163,-0.0173,0,0,-0.0172,-0.0173,0,0,0,0,0,0,0,0,0.0021,0.0018,0.0001,-0.0002,-0.0005,-0.0045,-0.0053,-0.008,-0.0073,-0.0049,-0.0074,-0.0075,-0.0122,-0.0128,-0.0138,-0.0177,-0.018,-0.0172,-0.0174,-0.0175,-0.0176,0,0,0,0,0,0,0,0.0023,0.002,0.0001,0.0,-0.0003,-0.0028,-0.0032,-0.0059,-0.0084,-0.0051,-0.0054,-0.0058,-0.0124,-0.0135,-0.0141,-0.0181,-0.0172,-0.0174,-0.0176,-0.0177,-0.0232,-0.0232,0,0,0,0,0,0,0.0035,0.0022,0.0003,-0.0001,0.0009,-0.0028,-0.0033,-0.0032,-0.0083,-0.0091,-0.0058,-0.006,-0.013,-0.0137,-0.0144,-0.0146,-0.0175,-0.0178,-0.0179,-0.0233,-0.0232,-0.0232,0,0,0,0,0,0,0.0036,0.0034,0.0005,0.001,0.0005,-0.0027,-0.0027,-0.0033,-0.0043,-0.0087,-0.0096,-0.0061,-0.0131,-0.014,-0.016,-0.015,-0.0179,-0.0182,-0.0233,-0.0233,-0.0232,-0.016,0,0,0,0,0,0,0.0037,0.0035,0.0038,0.0011,0.0005,0.0001,-0.0027,-0.0034,-0.0045,-0.0048,-0.0093,-0.0101,-0.0132,-0.0155,-0.0163,-0.0155,-0.0184,-0.0234,-0.0233,-0.0232,-0.0162,-0.0157,-0.0152,0,0,0,0,0,0.0038,0.005,0.0039,0.0036,0.0011,0.0002,-0.0004,-0.0029,-0.0044,-0.0041,-0.0072,-0.01,-0.0157,-0.0157,-0.0166,-0.0159,-0.0234,-0.0233,-0.0232,-0.0165,-0.0158,-0.0152,0,0,0,0,0,0,0.0063,0.0046,0.0033,0.0039,0.0025,-0.0005,-0.0005,-0.0024,-0.0046,-0.005,-0.0094,-0.0104,-0.012,-0.0149,-0.0148,-0.0174,-0.0201,-0.0202,-0.0146,-0.014,-0.0135,-0.0115,-0.0187,0,0,0,0,0,0.007,0.0074,0.0053,0.0057,0.0054,0.0024,0.0016,0.0001,-0.0022,-0.0033,-0.0064,-0.0098,-0.0125,-0.0139,-0.0167,-0.0179,-0.0209,-0.0182,-0.0176,-0.0172,-0.0162,-0.0198,-0.0195,-0.023,-0.023,-0.023,0,0,0.008,0.0072,0.0073,0.0063,0.0048,0.0055,0.0019,0.0015,0.0018,-0.0038,-0.0044,-0.0081,-0.0124,-0.0137,-0.0147,-0.0159,-0.0178,-0.0171,-0.0166,-0.016,-0.0197,-0.0193,-0.019,-0.0229,-0.0229,-0.0229,0,0,0.0111,0.0097,0.0113,0.0107,0.0095,0.0079,0.0082,0.0057,0.0044,0.0033,-0.0007,-0.0034,-0.0075,-0.0101,-0.0121,-0.0104,-0.0149,-0.0116,-0.0073,-0.0107,-0.0104,-0.0102,-0.0136,-0.0137,-0.0113,-0.0112,-0.0112,0,0.0123,0.0141,0.0116,0.0133,0.0135,0.0096,0.0118,0.01,0.0071,0.0066,0.0041,-0.0017,-0.0056,-0.0071,-0.0067,-0.0091,-0.0118,-0.0091,-0.0099,-0.0097,-0.0096,-0.0132,-0.0134,-0.0109,-0.0109,-0.011,-0.011,0,0.0167,0.0181,0.0191,0.0199,0.0199,0.0209,0.0188,0.0182,0.0157,0.0136,0.0113,0.0056,0.0024,0.0003,-0.0028,-0.0039,-0.0062,-0.0087,-0.0111,-0.0088,-0.0127,-0.0131,-0.0104,-0.0105,-0.0106,-0.0107,0,0,0.0196,0.0219,0.0222,0.0241,0.0236,0.0242,0.0251,0.0248,0.0259,0.0212,0.0219,0.0157,0.0122,0.0097,0.005,0.0016,-0.0008,-0.0027,-0.003,-0.0053,-0.0082,-0.0109,-0.0116,-0.0033,-0.0034,-0.0034,-0.0112,0,0.0238,0.0289,0.0285,0.0329,0.0355,0.033,0.0346,0.0336,0.0314,0.0309,0.0243,0.0229,0.0159,0.0149,0.0102,0.0026,-0.0015,0.0015,-0.0108,-0.0111,-0.0131,-0.0121,-0.0083,-0.015,-0.0116,-0.0117,-0.0118,0,0.0283,0.0313,0.037,0.0404,0.0413,0.0433,0.0451,0.0461,0.0441,0.0424,0.0388,0.0337,0.0286,0.0223,0.0097,0.0121,0.0027,-0.0043,-0.0048,-0.0099,-0.0145,-0.0169,-0.016,-0.0125,-0.0124,-0.0124,-0.0123,0,0.0325,0.0371,0.0421,0.0432,0.0464,0.0485,0.0501,0.0498,0.0524,0.0503,0.052,0.0431,0.0407,0.028,0.0128,0.0116,-0.0014,-0.0051,-0.0168,-0.0171,-0.0176,-0.0179,-0.0144,-0.0144,-0.0144,-0.0144,-0.0144,0,0.0371,0.0409,0.0447,0.0476,0.0542,0.0541,0.0604,0.0604,0.0624,0.0675,0.0589,0.0605,0.0421,0.0324,0.0167,-0.0006,0.0011,-0.0155,-0.019,-0.0151,-0.0151,-0.0159,-0.0159,-0.0147,-0.0146,-0.0146,-0.0145,0,0.0408,0.0431,0.0495,0.0544,0.0568,0.0616,0.069,0.0734,0.0743,0.0811,0.0816,0.074,0.0616,0.0419,0.0214,0.0058,-0.0114,-0.0185,-0.0127,-0.0154,-0.026,-0.0256,-0.0319,-0.032,-0.0321,-0.0322,-0.0323,0,0.0431,0.0469,0.0552,0.0601,0.0627,0.0702,0.0761,0.0794,0.0854,0.0901,0.0943,0.0849,0.0799,0.0482,0.0193,-0.0084,-0.0123,-0.0242,-0.0266,-0.0249,-0.0277,-0.0271,-0.0266,-0.0248,-0.0248,-0.0248,-0.0248,0,0.0475,0.0505,0.0561,0.0665,0.0738,0.0829,0.0917,0.0986,0.1042,0.1101,0.115,0.1116,0.0831,0.0555,0.0169,-0.0018,-0.0195,-0.0255,-0.0247,-0.0208,-0.0189,-0.0214,-0.021,-0.025,-0.025,-0.025,-0.025,-0.0249,0.0509,0.0558,0.0635,0.0734,0.0826,0.0943,0.1032,0.1129,0.1242,0.1343,0.1296,0.1262,0.0946,0.0462,0.0126,-0.0219,-0.0207,-0.0327,-0.0323,-0.0321,-0.0297,-0.0281,-0.0355,-0.0356,-0.0356,-0.0356,-0.0357,0,0.0545,0.0604,0.0697,0.0822,0.093,0.0972,0.1128,0.1219,0.1365,0.1448,0.1484,0.1195,0.0882,0.0527,0.0016,-0.03,-0.0315,-0.0393,-0.034,-0.0335,-0.0332,-0.0308,-0.037,-0.0371,-0.0372,-0.0373,0,0,0.0567,0.0655,0.0707,0.0886,0.0979,0.113,0.1228,0.1358,0.1454,0.1536,0.1529,0.1454,0.1015,0.064,0.0214,-0.0074,-0.013,-0.013,-0.0083,0.0036,0.0043,-0.0257,-0.021,0,0,0,0,0]}],[{"header":{"parameterUnit":"m.s-1","parameterCategory":2,"la1":30.2991,"la2":30.254,"lo1":-89.0895,"lo2":-89.0444,"dy":0.0017,"dx":0.0017,"nx":28,"ny":28,"refTime":"2024-03-15T09:00:00:Z","depth":"4","parameterNumber":2,"parameterNumberName":"U-component_of_CURRENTS"},"data":[0,0,0,0,0,0,0,0,0,0,0,0,0,0,0,0,0,0,0,0,0,0,0,0,0,0,0,0,0,0,0,0,0,0,0,0,0,0,0,0,0,0,0,0,0,0,0,0,0,0,0,0,0,0,0,0,0,0,0.1633,0.1634,0,0.1719,0.1719,0.172,0.1788,0.1789,0.179,0.1791,0.1875,0.1876,0.1878,0,0,0,0,0,0,0,0,0,0,0,0,0,0.1533,0.1535,0.1633,0.1634,0.1635,0.1718,0.1719,0.172,0.1788,0.1789,0.179,0.1791,0.1875,0.1876,0.1878,0,0,0,0,0,0,0,0,0,0,0,0,0,0.1592,0.1535,0.1632,0.168,0.1686,0.1718,0.1719,0.1721,0.1788,0.1789,0.179,0.1792,0.1874,0.1876,0.1878,0.1866,0,0,0.1885,0.1886,0,0,0,0,0,0,0,0,0.1588,0.1595,0.1672,0.1677,0.1683,0.1746,0.1716,0.177,0.1787,0.1747,0.1791,0.1792,0.1832,0.1838,0.1848,0.187,0.1874,0.1885,0.1886,0.1887,0.1888,0,0,0,0,0,0,0,0.1584,0.1592,0.1665,0.1673,0.168,0.17,0.1709,0.1726,0.178,0.1751,0.1756,0.1768,0.1835,0.1846,0.1851,0.1875,0.1885,0.1887,0.1888,0.1889,0.2008,0.201,0,0,0,0,0,0,0.1576,0.1588,0.1662,0.1668,0.164,0.1701,0.1711,0.1723,0.178,0.179,0.1767,0.1771,0.1842,0.1848,0.1854,0.1945,0.1887,0.1889,0.1891,0.2006,0.2009,0.2011,0,0,0,0,0,0,0.1573,0.1582,0.1659,0.1631,0.1643,0.1701,0.1714,0.1724,0.1773,0.1793,0.1803,0.181,0.1843,0.1851,0.1905,0.1945,0.189,0.1892,0.2004,0.2007,0.201,0.2061,0,0,0,0,0,0,0.157,0.158,0.16,0.1631,0.1644,0.1702,0.1713,0.1725,0.1777,0.1784,0.1832,0.1839,0.1844,0.1901,0.1907,0.1947,0.1894,0.2002,0.2005,0.2009,0.2057,0.2065,0.2072,0,0,0,0,0,0.1566,0.158,0.1601,0.1611,0.1665,0.1703,0.1713,0.1756,0.1778,0.1804,0.1841,0.184,0.1928,0.1905,0.191,0.1952,0.2,0.2004,0.2008,0.2053,0.2063,0.2072,0,0,0,0,0,0,0.1548,0.159,0.1613,0.1641,0.1683,0.1716,0.1748,0.1775,0.1824,0.1843,0.1858,0.1868,0.1932,0.1934,0.1908,0.1998,0.1966,0.1971,0.1998,0.2007,0.2015,0.2018,0.1896,0,0,0,0,0,0.1553,0.1579,0.162,0.1649,0.1672,0.1717,0.1745,0.1777,0.1816,0.1842,0.1875,0.1912,0.1947,0.1972,0.2,0.2042,0.2054,0.2076,0.2083,0.2089,0.2098,0.215,0.2163,0.2024,0.2024,0.2024,0,0,0.1554,0.1582,0.1598,0.1648,0.1685,0.1723,0.1738,0.1792,0.1832,0.1841,0.1913,0.1942,0.1965,0.202,0.2049,0.2031,0.2137,0.2095,0.21,0.2105,0.2155,0.2169,0.2181,0.2027,0.2026,0.2026,0,0,0.1562,0.1597,0.1623,0.1661,0.1725,0.1751,0.1774,0.1832,0.1871,0.1933,0.1955,0.201,0.206,0.2088,0.2104,0.2169,0.2176,0.2186,0.2227,0.2278,0.229,0.23,0.2335,0.2348,0.2189,0.2189,0.2189,0,0.1567,0.1603,0.1638,0.1676,0.1713,0.1766,0.1806,0.1848,0.1919,0.1955,0.1967,0.2068,0.209,0.2153,0.2184,0.2187,0.2214,0.2188,0.2288,0.2298,0.2308,0.2341,0.2354,0.2192,0.2191,0.2191,0.2191,0,0.1588,0.1634,0.1655,0.1718,0.1759,0.1806,0.1863,0.1918,0.1971,0.2012,0.2101,0.2139,0.22,0.2219,0.2224,0.2309,0.2305,0.2291,0.2261,0.2325,0.2355,0.2369,0.2196,0.2195,0.2194,0.2193,0,0,0.1561,0.1651,0.1665,0.1707,0.179,0.1823,0.1893,0.1966,0.2026,0.2096,0.2174,0.2239,0.2276,0.2298,0.232,0.2366,0.246,0.2368,0.2369,0.2396,0.2575,0.2416,0.2415,0.247,0.2473,0.2475,0.2569,0,0.1576,0.1641,0.1687,0.1764,0.1804,0.1875,0.1933,0.2009,0.2082,0.217,0.2226,0.231,0.2301,0.2354,0.2398,0.2454,0.2498,0.2435,0.2514,0.2517,0.2362,0.2425,0.2483,0.2579,0.2582,0.2584,0.2586,0,0.1579,0.1627,0.1694,0.1794,0.182,0.1876,0.1986,0.2054,0.2172,0.2235,0.2322,0.2375,0.247,0.2452,0.2564,0.2531,0.2563,0.2589,0.2593,0.2434,0.2381,0.2503,0.261,0.2608,0.2606,0.2604,0.2603,0,0.153,0.1633,0.1687,0.1722,0.1835,0.1891,0.1963,0.2078,0.2145,0.2297,0.2365,0.2468,0.2545,0.2603,0.2658,0.2634,0.2768,0.2734,0.2613,0.2602,0.2694,0.2682,0.2808,0.2808,0.2808,0.2808,0.2808,0,0.151,0.1563,0.1676,0.1709,0.1785,0.1881,0.1982,0.207,0.2205,0.2283,0.2405,0.2472,0.2593,0.2672,0.2701,0.2696,0.2803,0.2631,0.2619,0.2713,0.2702,0.2703,0.269,0.2811,0.2811,0.281,0.2809,0,0.1444,0.1521,0.1592,0.1719,0.1764,0.1823,0.1978,0.204,0.2192,0.2303,0.2358,0.2512,0.2614,0.2701,0.281,0.2734,0.2758,0.2729,0.2837,0.2828,0.2548,0.2536,0.2597,0.2592,0.2588,0.2584,0.2582,0,0.1412,0.144,0.1575,0.1612,0.1677,0.1785,0.1845,0.2012,0.2074,0.2294,0.232,0.2489,0.2571,0.2596,0.2699,0.2744,0.271,0.2695,0.2601,0.2546,0.2529,0.2524,0.2518,0.2575,0.2574,0.2573,0.2572,0,0.1343,0.1402,0.146,0.1529,0.1601,0.1673,0.1779,0.181,0.1996,0.2154,0.2239,0.2312,0.2423,0.2498,0.2557,0.2578,0.2688,0.2652,0.2659,0.2571,0.252,0.2506,0.2505,0.2558,0.256,0.2561,0.2562,0,0.129,0.1304,0.1374,0.1429,0.1505,0.1528,0.1608,0.1685,0.1776,0.2011,0.2036,0.2229,0.2393,0.2414,0.2467,0.2481,0.2437,0.2341,0.2363,0.238,0.2265,0.2166,0.2095,0,0,0,0,0,0.1215,0.1217,0.1261,0.1306,0.1375,0.142,0.1538,0.1621,0.1798,0.1804,0.1919,0.2018,0.2118,0.2216,0.2189,0.2364,0.2437,0.2319,0.2334,0.248,0.2496,0.238,0,0,0,0,0,0,0.1162,0.1194,0.1218,0.1193,0.1199,0.1256,0.1327,0.1449,0.1463,0.166,0.1728,0.1888,0.2016,0.2118,0.2149,0.2178,0.2143,0.2444,0.2439,0.2471,0.2486,0.2499,0.2385,0,0,0,0,0]},{"header":{"parameterUnit":"m.s-1","parameterCategory":2,"la1":30.2991,"la2":30.254,"lo1":-89.0895,"lo2":-89.0444,"dy":0.0017,"dx":0.0017,"nx":28,"ny":28,"refTime":"2024-03-15T09:00:00:Z","depth":"4","parameterNumber":3,"parameterNumberName":"V-component_of_CURRENTS"},"data":[0,0,0,0,0,0,0,0,0,0,0,0,0,0,0,0,0,0,0,0,0,0,0,0,0,0,0,0,0,0,0,0,0,0,0,0,0,0,0,0,0,0,0,0,0,0,0,0,0,0,0,0,0,0,0,0,0,0,0.0063,0.0063,0,0.0026,0.0025,0.0025,-0.0004,-0.0005,-0.0005,-0.0005,-0.0064,-0.0066,-0.0067,0,0,0,0,0,0,0,0,0,0,0,0,0,0.0076,0.0076,0.0063,0.0063,0.0063,0.0026,0.0025,0.0025,-0.0004,-0.0005,-0.0005,-0.0005,-0.0064,-0.0066,-0.0067,0,0,0,0,0,0,0,0,0,0,0,0,0,0.0057,0.0076,0.0063,0.0044,0.0042,0.0026,0.0025,0.0025,-0.0004,-0.0005,-0.0005,-0.0005,-0.0063,-0.0065,-0.0068,-0.0075,0,0,-0.0074,-0.0075,0,0,0,0,0,0,0,0,0.0058,0.0056,0.0048,0.0046,0.0043,0.0016,0.0008,-0.0009,-0.0004,0.0012,-0.0005,-0.0005,-0.0039,-0.0043,-0.005,-0.0078,-0.008,-0.0074,-0.0075,-0.0076,-0.0077,0,0,0,0,0,0,0,0.0059,0.0057,0.0047,0.0047,0.0045,0.0026,0.0023,0.0004,-0.0012,0.0011,0.0009,0.0006,-0.004,-0.0048,-0.0052,-0.0081,-0.0074,-0.0076,-0.0077,-0.0078,-0.0119,-0.0119,0,0,0,0,0,0,0.0068,0.0059,0.0049,0.0046,0.0051,0.0026,0.0023,0.0024,-0.0012,-0.0017,0.0007,0.0005,-0.0044,-0.0049,-0.0054,-0.0057,-0.0076,-0.0078,-0.0079,-0.0119,-0.0119,-0.0119,0,0,0,0,0,0,0.0068,0.0067,0.005,0.0052,0.0049,0.0027,0.0028,0.0024,0.0017,-0.0014,-0.002,0.0005,-0.0045,-0.0051,-0.0065,-0.0059,-0.0079,-0.0081,-0.012,-0.0119,-0.0119,-0.0067,0,0,0,0,0,0,0.0069,0.0068,0.0071,0.0053,0.0049,0.0047,0.0028,0.0023,0.0016,0.0014,-0.0018,-0.0024,-0.0046,-0.0061,-0.0067,-0.0063,-0.0083,-0.012,-0.0119,-0.0119,-0.0069,-0.0065,-0.0061,0,0,0,0,0,0.007,0.008,0.0072,0.0071,0.0055,0.0048,0.0044,0.0026,0.0017,0.0018,-0.0003,-0.0023,-0.0064,-0.0063,-0.0069,-0.0066,-0.012,-0.012,-0.0119,-0.007,-0.0065,-0.0061,0,0,0,0,0,0,0.0087,0.0078,0.0068,0.0075,0.0064,0.0044,0.0044,0.0031,0.0015,0.0014,-0.0019,-0.0026,-0.0036,-0.0058,-0.0057,-0.0077,-0.0096,-0.0097,-0.0057,-0.0053,-0.0049,-0.0035,-0.0085,0,0,0,0,0,0.0093,0.0098,0.0083,0.0088,0.0086,0.0065,0.0059,0.0049,0.0033,0.0026,0.0003,-0.0022,-0.004,-0.0051,-0.0071,-0.0081,-0.011,-0.0084,-0.008,-0.0077,-0.0071,-0.0109,-0.0108,-0.0118,-0.0118,-0.0118,0,0,0.0101,0.0096,0.0099,0.0092,0.0082,0.0088,0.0061,0.0059,0.0062,0.0022,0.0017,-0.0008,-0.004,-0.0049,-0.0057,-0.0067,-0.0091,-0.0076,-0.0073,-0.0069,-0.0109,-0.0108,-0.0107,-0.0118,-0.0118,-0.0118,0,0,0.0123,0.0116,0.0129,0.0125,0.0117,0.0106,0.0108,0.0091,0.0081,0.0074,0.0045,0.0024,-0.0003,-0.0026,-0.004,-0.0029,-0.0069,-0.0037,-0.0008,-0.0045,-0.0045,-0.0045,-0.0085,-0.0089,-0.0036,-0.0036,-0.0036,0,0.0132,0.0147,0.0131,0.0143,0.0145,0.0119,0.0134,0.0122,0.0101,0.0096,0.0081,0.0037,0.0008,-0.0007,-0.0004,-0.0021,-0.0049,-0.0021,-0.004,-0.0041,-0.0041,-0.0083,-0.0087,-0.0034,-0.0034,-0.0034,-0.0034,0,0.0164,0.0175,0.0184,0.0191,0.0191,0.02,0.0185,0.0182,0.0165,0.0147,0.0128,0.0087,0.0061,0.0045,0.0025,0.0007,-0.0013,-0.0029,-0.0049,-0.0037,-0.0082,-0.0088,-0.003,-0.0031,-0.0032,-0.0032,0,0,0.0182,0.0203,0.0205,0.022,0.0218,0.0224,0.0231,0.0227,0.0234,0.02,0.02,0.0156,0.0128,0.0109,0.0074,0.0039,0.0005,0.0008,0.0005,-0.0026,-0.0079,-0.0085,-0.0093,-0.0014,-0.0014,-0.0015,-0.0109,0,0.021,0.0248,0.0248,0.0282,0.03,0.0286,0.0297,0.029,0.0273,0.0265,0.0214,0.02,0.0153,0.0144,0.0102,0.0034,-0.0008,0.0032,-0.009,-0.0094,-0.0096,-0.0099,-0.0017,-0.0114,-0.0116,-0.0117,-0.0117,0,0.0239,0.0262,0.0304,0.0334,0.034,0.0356,0.037,0.0378,0.0359,0.0345,0.0315,0.0273,0.0223,0.0183,0.0064,0.0093,0.0014,-0.0047,-0.0053,-0.0078,-0.011,-0.0129,-0.0129,-0.0128,-0.0127,-0.0126,-0.0126,0,0.0262,0.03,0.0337,0.0346,0.0374,0.0391,0.0406,0.0402,0.042,0.0399,0.0402,0.0329,0.0298,0.0193,0.0066,0.0065,-0.0069,-0.0089,-0.0174,-0.0176,-0.0165,-0.0164,-0.0176,-0.0176,-0.0176,-0.0176,-0.0176,0,0.0287,0.0316,0.0353,0.0373,0.0422,0.0428,0.0474,0.0475,0.0487,0.0514,0.0447,0.0439,0.03,0.0207,0.0085,-0.0061,-0.006,-0.0169,-0.0199,-0.0142,-0.0137,-0.017,-0.0168,-0.0179,-0.0179,-0.0178,-0.0177,0,0.03,0.0324,0.0373,0.0416,0.0436,0.0471,0.0532,0.0564,0.0565,0.0599,0.0598,0.052,0.0397,0.0246,0.0071,-0.0031,-0.0172,-0.0227,-0.0154,-0.0179,-0.0262,-0.0256,-0.0329,-0.033,-0.0331,-0.0332,-0.0332,0,0.0308,0.0335,0.0406,0.0446,0.0469,0.0527,0.0573,0.0603,0.0641,0.0645,0.0661,0.056,0.0487,0.0243,0.007,-0.0165,-0.0201,-0.0277,-0.0272,-0.0255,-0.0277,-0.027,-0.0263,-0.0334,-0.0334,-0.0334,-0.0334,0,0.0321,0.0349,0.0392,0.0478,0.0537,0.061,0.0675,0.071,0.0747,0.0746,0.0722,0.0597,0.0454,0.0254,0.007,-0.0101,-0.0226,-0.0286,-0.0286,-0.0282,-0.0261,-0.0281,-0.0273,-0.0337,-0.0337,-0.0337,-0.0336,0,0.0333,0.0365,0.0432,0.0508,0.059,0.0673,0.0705,0.0752,0.0791,0.0795,0.078,0.0628,0.054,0.0285,0.0115,-0.0052,-0.01,-0.0154,-0.0161,-0.016,-0.0086,-0.0033,-0.0063,0,0,0,0,0,0.0343,0.0387,0.0458,0.055,0.0634,0.0687,0.0768,0.0794,0.0825,0.0824,0.0811,0.0681,0.0434,0.032,0.0154,0.0075,-0.0146,-0.0128,-0.0215,-0.0353,-0.0349,-0.0292,0,0,0,0,0,0,0.0351,0.0415,0.0457,0.0575,0.0643,0.0741,0.0797,0.0818,0.0818,0.082,0.0693,0.0635,0.0391,0.0535,0.0151,0.0097,0.0018,-0.0244,-0.0248,-0.0354,-0.0352,-0.0349,-0.0288,0,0,0,0,0]}]]